Sarasota, FL

6:57 PM EST on December 15, 2019 (GMT -0500)
Sarasota-bradenton

Weather History for KSRQ - October, 2019

Change the Weather History Date:

Friday, October 11, 2019

  Actual Average Record
Temperature  
Mean Temperature 82 °F 78 °F  
Max Temperature 91 °F 86 °F 94 °F (2009)
Min Temperature 73 °F 69 °F 54 °F (1942)
Degree Days  
Heating Degree Days 0 0  
Month to date heating degree days 0 0  
Since 1 July heating degree days 0 0  
Cooling Degree Days 18 13  
Month to date cooling degree days 206 152  
Year to date cooling degree days 3663 2941  
Growing Degree Days 32 (Base 50)    
Moisture  
Dew Point 68 °F    
Average Humidity 66    
Maximum Humidity 93    
Minimum Humidity 41    
Precipitation  
Precipitation 0.00 in 0.10 in 5.80 in (1990)
Month to date precipitation 0.34 1.37  
Year to date precipitation 43.72 46.80  
Sea Level Pressure  
Sea Level Pressure 29.96 in    
Wind  
Wind Speed 7 mph ()    
Max Wind Speed 17 mph    
Max Gust Speed 21 mph    
Visibility 10.0 miles    
Events      
T = Trace of Precipitation, MM = Missing Value Source: Averaged Metar Reports

Daily Weather History Graph

Daily Weather History Graph

Search for Another Location

Airport or City:

Astronomy

Oct. 11, 2019 Rise Set
Actual Time 7:27 AM EDT 7:05 PM EDT
Civil Twilight 7:04 AM EDT 7:29 PM EDT
Nautical Twilight 6:37 AM EDT 7:56 PM EDT
Astronomical Twilight 6:10 AM EDT 8:23 PM EDT
Moon 6:18 PM EDT (10/11) 5:26 AM EDT (10/11)
Length of Visible Light 12h 24m
Length of Day
11h 37m
Waxing Gibbous, 96% of the Moon is Illuminated
Oct 11
Waxing Gibbous
Oct 13
Full
Oct 21
Last Quarter
Oct 27
New
Nov 4
First Quarter

Hourly Weather History & Observations

Time (EDT) Temp. Heat Index Dew Point Humidity Pressure Visibility Wind Dir Wind Speed Gust Speed Precip Events Conditions
12:53 AM 75.9 °F - 70.0 °F 82% 29.97 in 10.0 mi ENE 8.1 mph - N/A   Clear
1:53 AM 75.9 °F - 70.0 °F 82% 29.96 in 10.0 mi NE 6.9 mph - N/A   Clear
2:53 AM 75.0 °F - 71.1 °F 87% 29.94 in 10.0 mi NE 8.1 mph - N/A   Clear
3:53 AM 73.9 °F - 71.1 °F 91% 29.94 in 10.0 mi NE 6.9 mph - N/A   Clear
4:53 AM 73.9 °F - 70.0 °F 87% 29.94 in 10.0 mi NE 6.9 mph - N/A   Clear
5:53 AM 73.9 °F - 70.0 °F 87% 29.94 in 10.0 mi NE 5.8 mph - N/A   Clear
7:53 AM 73.9 °F - 70.0 °F 87% 29.97 in 10.0 mi NE 5.8 mph - N/A   Clear
8:53 AM 77.0 °F - 71.1 °F 82% 29.98 in 10.0 mi ENE 11.5 mph - N/A   Clear
9:53 AM 80.1 °F 83.2 °F 70.0 °F 71% 30.00 in 10.0 mi East 13.8 mph - N/A   Clear
10:53 AM 84.0 °F 89.0 °F 71.1 °F 65% 30.00 in 10.0 mi East 11.5 mph 17.3 mph N/A   Partly Cloudy
11:53 AM 86.0 °F 91.5 °F 71.1 °F 61% 30.00 in 10.0 mi ENE 10.4 mph - N/A   Scattered Clouds
12:06 PM 87.1 °F 92.0 °F 70.0 °F 57% 30.00 in 10.0 mi NE 11.5 mph - N/A   Mostly Cloudy
12:53 PM 88.0 °F 92.1 °F 69.1 °F 53% 29.99 in 10.0 mi East 8.1 mph - N/A   Partly Cloudy
1:53 PM 90.0 °F 94.5 °F 69.1 °F 50% 29.95 in 10.0 mi ENE 9.2 mph - N/A   Scattered Clouds
2:53 PM 91.9 °F 95.4 °F 66.9 °F 44% 29.94 in 10.0 mi ENE 11.5 mph - N/A   Partly Cloudy
3:53 PM 90.0 °F 92.4 °F 66.0 °F 45% 29.93 in 10.0 mi East 9.2 mph - N/A   Scattered Clouds
4:53 PM 91.9 °F 94.1 °F 64.9 °F 41% 29.92 in 10.0 mi NNE 8.1 mph - N/A   Clear
5:53 PM 89.1 °F 90.3 °F 64.0 °F 43% 29.92 in 10.0 mi NE 9.2 mph - N/A   Clear
6:53 PM 86.0 °F 87.3 °F 64.0 °F 48% 29.93 in 10.0 mi ENE 5.8 mph - N/A   Clear
7:53 PM 82.0 °F 83.4 °F 64.0 °F 54% 29.94 in 10.0 mi ENE 5.8 mph - N/A   Partly Cloudy
8:53 PM 81.0 °F 83.0 °F 66.0 °F 60% 29.96 in 10.0 mi East 9.2 mph - N/A   Clear
9:53 PM 79.0 °F - 66.9 °F 66% 29.99 in 10.0 mi East 8.1 mph - N/A   Clear
10:53 PM 77.0 °F - 68.0 °F 74% 30.01 in 10.0 mi East 8.1 mph - N/A   Clear
11:53 PM 75.9 °F - 68.0 °F 76% 30.01 in 10.0 mi East 6.9 mph - N/A   Clear